Flag for China Weather past 2 weeks in Guangzhou, Guangdong, China

55 °F

Passing clouds.

Feels Like: 55 °F
Forecast: 55 / 74 °F
Wind: 3 mph from East

Location: Canton Airport

Current Time: Nov 28, 2015 at 1:56:24 AM

Latest Report: Nov 28, 2015 at 1:30 AM

Visibility: N/A

Pressure: 30.21 "Hg

Humidity: 67%

Dew point: 45 °F

Location of GuangzhouLocation

Historic Weather in Guangzhou — Graph


Guangzhou temperature yesterday

Maximum temperature yesterday: 70 °F (at 4:00 PM)
Minimum temperature yesterday: 54 °F (at 2:00 AM)
Average temperature yesterday: 59 °F

Past Weeks' High & Low Weather Summary

High88 °F (Nov 18, 2:00 PM)100% (Nov 13, 11:00 AM)30.30 "Hg (Nov 13, 11:00 AM)
Low54 °F (Nov 26, 5:00 AM)33% (Nov 26, 3:30 PM)29.83 "Hg (Nov 16, 2:30 PM)
Average72 °F75%30.04 "Hg
* Reported Midnight between Nov 12 and Nov 13 — Nov 28 12:30 AM, Guangzhou, Weather by CustomWeather, © 2015

Note: Actual official high and low records may vary slightly from our data, if they occured in-between our weather recording intervals... More about our weather records


Guangzhou weather history for previous 24 hours

Time TempWeatherWind HumidityBarometerVisibility
12:30 AM
Sat, Nov 28
57 °FPassing clouds.3 mph67%30.24 "HgN/A
12:00 AM57 °FPassing clouds.3 mph67%30.24 "HgN/A
11:30 PM
Fri, Nov 27
57 °FPassing clouds.3 mph63%30.24 "HgN/A
11:00 PM57 °FClear.3 mph63%30.24 "Hg10 mi
10:30 PM57 °FClear.3 mph63%30.24 "Hg10 mi
10:00 PM57 °FClear.3 mph63%30.24 "Hg10 mi
9:30 PM59 °FClear.3 mph55%30.24 "Hg10 mi
9:00 PM59 °FClear.6 mph55%30.21 "Hg10 mi
8:30 PM61 °FClear.8 mph52%30.21 "Hg10 mi
8:00 PM61 °FClear.3 mph55%30.21 "Hg10 mi
7:30 PM61 °FClear.3 mph55%30.21 "Hg10 mi
7:00 PM63 °FClear.3 mph52%30.18 "Hg10 mi
6:30 PM63 °FClear.3 mph56%30.18 "Hg10 mi
6:00 PM64 °FClear.3 mph49%30.18 "Hg10 mi
5:30 PM66 °FSunny.3 mph46%30.15 "Hg10 mi
5:00 PM66 °FSunny.3 mph43%30.15 "Hg10 mi
4:30 PM70 °FPassing clouds.3 mph33%30.15 "HgN/A
4:00 PM70 °FSunny.1 mph35%30.15 "Hg10 mi
2:30 PM68 °FSunny.1 mph35%30.18 "Hg10 mi
2:00 PM68 °FSunny.3 mph33%30.18 "Hg10 mi
1:30 PM66 °FPassing clouds.3 mph35%30.18 "HgN/A
1:00 PM68 °FSunny.3 mph33%30.21 "Hg10 mi
12:30 PM64 °FSunny.6 mph37%30.24 "Hg10 mi
12:00 PM63 °FPassing clouds.6 mph39%30.24 "HgN/A
11:30 AM63 °FPassing clouds.6 mph37%30.27 "HgN/A
11:00 AM61 °FPassing clouds.6 mph42%30.27 "HgN/A
10:30 AM61 °FPassing clouds.8 mph39%30.27 "HgN/A
10:00 AM57 °FSunny.8 mph41%30.30 "Hg10 mi
9:30 AM57 °FPassing clouds.8 mph41%30.30 "HgN/A
9:00 AM59 °FPassing clouds.6 mph39%30.27 "HgN/A
8:30 AM57 °FSunny.8 mph44%30.27 "Hg10 mi
8:00 AM55 °FPassing clouds.8 mph47%30.27 "HgN/A
7:30 AM54 °FSunny.6 mph51%30.27 "Hg10 mi
7:00 AM54 °FPassing clouds.3 mph54%30.24 "HgN/A
6:00 AM54 °FPassing clouds.6 mph51%30.24 "HgN/A
5:30 AM54 °FPassing clouds.6 mph58%30.24 "HgN/A
4:30 AM54 °FClear.10 mph54%30.24 "Hg10 mi
4:00 AM54 °FClear.10 mph54%30.24 "Hg10 mi
3:30 AM54 °FClear.10 mph58%30.24 "Hg10 mi
3:00 AM54 °FClear.6 mph58%30.24 "Hg10 mi
2:30 AM54 °FClear.6 mph58%30.21 "Hg10 mi
2:00 AM54 °FClear.8 mph58%30.24 "Hg10 mi
1:30 AM55 °FClear.8 mph55%30.24 "Hg10 mi
1:00 AM55 °FClear.6 mph55%30.24 "Hg10 mi
Weather by CustomWeather, © 2015

See weather overviewHow to use our weather pages